Location: Observatoire de Paris
(48.8363°N, 2.3365°E)
Time: 10:03:49
(UTC+01:00)

Courier 1B - All Passes

Search period start: 31 July 2021 00:00
Search period end: 10 August 2021 00:00
Orbit: 962 x 1209 km, 28.3° (Epoch: 30 July)

Date Brightness Start Highest point End Pass type
(mag) Time Alt. Az. Time Alt. Az. Time Alt. Az.
31 Jul - 20:39:01 10° SSW 20:42:22 13° S 20:45:41 10° SE daylight
31 Jul - 22:31:24 10° SW 22:35:07 14° S 22:38:46 10° SSE visible
01 Aug - 19:46:10 10° S 19:48:50 12° SSE 19:51:30 10° SE daylight
01 Aug - 21:37:35 10° SSW 21:41:36 15° S 21:45:32 10° SSE visible
01 Aug - 23:32:45 10° SSW 23:34:16 11° SSW 23:35:46 10° S visible
02 Aug - 18:54:25 10° SSE 18:55:19 10° SSE 18:56:13 10° SSE daylight
02 Aug - 20:43:58 10° SSW 20:48:02 15° S 20:52:04 10° SE daylight
02 Aug - 22:37:46 10° SW 22:40:47 13° SSW 22:43:45 10° S visible
03 Aug - 19:50:35 10° SSW 19:54:29 15° S 19:58:22 10° SE daylight
03 Aug - 21:43:31 10° SW 21:47:16 14° S 21:50:57 10° SSE visible
04 Aug - 18:57:29 10° SSW 19:00:56 13° SSE 19:04:22 10° SE daylight
04 Aug - 20:49:35 10° SW 20:53:43 15° S 20:57:47 10° SSE visible
05 Aug - 18:04:51 10° S 18:07:23 12° SSE 18:09:56 10° SE daylight
05 Aug - 19:55:54 10° SSW 20:00:09 16° S 20:04:23 10° SSE daylight
05 Aug - 21:50:18 10° SW 21:52:53 12° SSW 21:55:27 10° S visible
06 Aug - 19:02:26 10° SSW 19:06:34 15° S 19:10:44 10° SE daylight
06 Aug - 20:55:50 10° SW 20:59:22 14° SSW 21:02:52 10° SSE visible
07 Aug - 18:09:14 10° SSW 18:13:01 14° S 18:16:51 10° SE daylight
07 Aug - 20:01:49 10° SW 20:05:49 15° S 20:09:48 10° SSE daylight
08 Aug - 17:16:21 10° S 17:19:29 13° SSE 17:22:38 10° SE daylight
08 Aug - 19:08:04 10° SW 19:12:15 15° S 19:16:27 10° SSE daylight
08 Aug - 21:03:29 10° SSW 21:04:58 11° SSW 21:06:28 10° S visible
09 Aug - 16:24:12 10° S 16:25:58 11° SSE 16:27:46 10° SSE daylight
09 Aug - 18:14:32 10° SSW 18:18:41 15° S 18:22:52 10° SE daylight
09 Aug - 20:08:29 10° SW 20:11:26 12° SSW 20:14:25 10° S daylight
